Regional Weather Roundup
Issued by NWS Grand Forks, ND

Home | Current Version | Previous Version | Graphics & Text | Print | Product List | Glossary On
Versions: 1 2 3 4 5 6 7 8 9 10 11 12 13 14 15 16 17 18 19 20 21 22 23 24 25 26 27 28 29 30 31 32 33 34 35 36 37 38 39 40 41 42 43 44 45 46 47 48 49 50
000
ASUS43 KFGF 020210
RWRFGF
PRAIRIE TO PINES  WEATHER ROUNDUP
NATIONAL WEATHER SERVICE EASTERN NORTH DAKOTA/GRAND FORKS ND
800 PM CST SUN MAR 01 2015

 **SATELLITE DATA USED TO AUGMENT SKY COVER AT AUTOMATED STATIONS**
 *****  WEATHER ACROSS EASTERN NORTH DAKOTA  *****

CITY           SKY/WX    TMP DP  RH WIND       PRES   REMARKS
GRAND FORKS    CLEAR      7   2  80 SW7       30.32R WCI  -5
GRAND FRKS AFB PTCLDY    10   4  77 W8        30.32R WCI  -3
GRAND FRKS NWS   N/A     10 N/A N/A NW3         N/A
DEVILS LAKE    CLEAR     10   1  67 W12       30.29R WCI  -4
FARGO          CLEAR     13   6  74 W9        30.35R WCI   1
WAHPETON ARPT  PTCLDY    18  12  79 NW8       30.36R WCI   7
$$

 ***** WEATHER ACROSS CENTRAL AND WESTERN NORTH DAKOTA  *****

CITY           SKY/WX    TMP DP  RH WIND       PRES   REMARKS
BISMARCK       CLEAR     18   8  65 NW3       30.36R
MINOT          CLEAR     16   7  67 SW10      30.29R WCI   4
JAMESTOWN      CLEAR     12   3  67 W8        30.34R WCI   0
MINOT AFB      CLEAR      8   4  86 W8        30.29R WCI  -5
GARRISON         N/A     13   7  77 W7        30.30S WCI   3
WILLISTON      CLEAR     11   4  73 CALM      30.28S
DICKINSON      PTCLDY    12   8  84 SW3       30.26S
HETTINGER      CLEAR     12   5  73 CALM      30.30R
$$

 *****  OTHER AIRPORT OBSERVATIONS IN OUR AREA  *****

CITY           SKY/WX    TMP DP  RH WIND       PRES   REMARKS
WALHALLA         N/A     16   7  67 W12       30.27R WCI   3
GRAFTON AIRPOR NOT AVBL
VALLEY CITY AR FAIR       9   5  85 W12       30.34R WCI  -6
CANDO          FAIR       7   5  92 W13       30.27F WCI  -9
CAVALIER APRT  FAIR      14   5  67 W9        30.28S WCI   2
GWINNER        CLEAR     18   9  68 NW10      30.38R WCI   6
ROLLA          FAIR      12   7  79 W9        30.24S WCI   0
 ***** THE ABOVE OBSERVATIONS ARE NON NWS ARE NOT QUALITY
       CONTROLLED AND MAY MIS-REPORT RAIN FOR SNOW...
$$

  *****  WEATHER ACROSS NORTHERN MINNESOTA  *****

CITY           SKY/WX    TMP DP  RH WIND       PRES   REMARKS
FLAG ISLAND    PTCLDY    14   3  62 W10       30.18S WCI   1
WARROAD        MOCLDY    10   5  79 W9        30.23R WCI  -2
ROSEAU         PTCLDY    12   5  73 SW5       30.24R WCI   4
HALLOCK        NOT AVBL
THF RVR FALLS  PTCLDY     9   7  92 SW8       30.28R WCI  -4
BAUDETTE       PTCLDY    11   0  61 W8        30.19R WCI  -1
WASKISH        CLEAR      7   3  85 SW10      30.23R WCI  -8
CROOKSTON      PTCLDY     7   1  78 W9        30.32S WCI  -7
STEPHEN NDAWN    N/A     10   5  79 W8          N/A  WCI  -1
GREENBUSH NDAW   N/A      3   1  92 MISG        N/A
$$
  *****  WEATHER ACROSS CENTRAL AND WEST MINNESOTA  *****

CITY           SKY/WX    TMP DP  RH WIND       PRES   REMARKS
FOSSTON        CLEAR      1   0  92 CALM      30.29R
BEMIDJI        CLEAR      9   5  85 W8        30.24R WCI  -3
PARK RAPIDS    CLEAR     12   6  77 W12       30.26R WCI  -2
ELBOW LAKE     CLOUDY    18  12  77 NW9       30.33R WCI   6
WADENA         FLURRIES  14   9  79 NW12      30.29R WCI   0
DETROIT LAKES  CLEAR     12  10  92 NW6       30.30R WCI   3
MOORHEAD       CLEAR     16  10  79 W9        30.36R WCI   4
FERGUS FALLS   PTCLDY    16   7  67 N9        30.37R WCI   4
MORRIS MN      CLEAR     16   9  73 W9        30.34R WCI   4
STAPLES        CLOUDY    16   9  73 NW17      30.28R WCI   0
$$
  *****  WEATHER ELSEWHERE ACROSS MINNESOTA  *****

CITY           SKY/WX    TMP DP  RH WIND       PRES   REMARKS
DULUTH         CLEAR     18   8  65 W14       30.14R WCI   4
INTRNTL FALLS  PTCLDY    12   5  73 W8        30.17R WCI   0
ELY            NOT AVBL
CLOQUET        PTCLDY    19   9  63 W15       30.17R WCI   5
WHEATON        NOT AVBL
BRAINERD       PTCLDY    17   8  67 W9        30.26R WCI   6
HIBBING        CLOUDY    15   4  61 NW12      30.18R WCI   2
ALEXANDRIA     MOCLDY    17  10  74 NW15      30.30R WCI   2
SAINT CLOUD    CLOUDY    21  13  71 W18G25    30.29R WCI   6
MINNEAPOLIS    PTCLDY    25  12  58 W14       30.29R WCI  13
$$

  *****  WEATHER ACROSS SOUTH DAKOTA  *****

CITY           SKY/WX    TMP DP  RH WIND       PRES   REMARKS
SIOUX FALLS    CLEAR     20  13  74 NW8       30.38R WCI  10
BROOKINGS      NOT AVBL
WATERTOWN      CLEAR     18  11  74 NW9       30.35R WCI   7
HURON          PTCLDY    16  12  84 NW3       30.39S
SISSETON       NOT AVBL
ABERDEEN       CLEAR     16   8  71 NW5       30.40R WCI   9
MITCHELL       CLEAR     21  12  68 N6        30.41R WCI  13
PIERRE         CLEAR     20  11  68 N10       30.37R WCI   9
MOBRIDGE       CLEAR     16  10  77 NE8       30.34R WCI   5
RAPID CITY     CLEAR     13   6  74 N3        30.31R
$$

  *****  SOME WEATHER IN NEARBY STATES *****

CITY           SKY/WX    TMP DP  RH WIND       PRES   REMARKS
GLASGOW MT     CLEAR     19   9  65 SE9       30.19F WCI   8
GREAT FALLS MT PTCLDY    29  10  45 S12       29.95F WCI  19
CHEYENNE WY    CLOUDY    20  14  77 SW13      30.17R WCI   7
SCOTTSBLUFF NE PTCLDY    28  12  51 S5        30.25S WCI  23
OMAHA NE       PTCLDY    30  18  60 N3        30.40R
DES MOINES IA  PTCLDY    28  14  55 CALM      30.40S
DAVENPORT IA   CLEAR     15   9  76 MISG      30.39R
CHICAGO IL     CLEAR     20  13  74 W8        30.28S WCI  10
EAU CLAIRE WI  CLOUDY    19   7  59 W5        30.24R WCI  12
LA CROSSE WI   CLEAR     19   7  59 SW5       30.31R WCI  12
$$

  *****  SOME NATIONAL WEATHER *****

CITY           SKY/WX    TMP DP  RH WIND       PRES   REMARKS
LA GUARDIA NY  FRZ RAIN  28  25  86 CALM      30.25F FOG
RALEIGH NC     CLOUDY    34  32  92 CALM      30.34F FOG
ATLANTA GA     FOG       45  43  93 S5        30.36F VSB 3/4
NEW ORLEANS LA CLOUDY    58  56  93 E8        30.26R FOG
OKLAHOMA CITY  PTCLDY    32  23  69 N9        30.39R WCI  24
ALBUQUERQUE NM PTCLDY    56  30  37 S15       30.03R
SALT LAKE CITY CLOUDY    41  29  62 W5        29.98F
LOS ANGELES CA MOCLDY    57  46  66 S12G20    29.91R
BOISE ID       CLEAR     43  19  38 CALM      30.03F
SEATTLE WA     CLOUDY    50  28  42 CALM      30.00F
$$

*** WEATHER ACROSS MANITOBA...SASKATCHEWAN AND ONTARIO ***
                ***ONTARIO***

CITY           SKY/WX    TMP DP  RH WIND       PRES   REMARKS
GERALDTON      MOCLDY    16   5  62 W8        29.91R WCI   5
THUNDER BAY    CLEAR     18   5  57 W9        30.06R WCI   6
SIOUX LOOKOUT  PTCLDY    10   0  61 W7        30.04R WCI   0
TORONTO        MOCLDY    23  16  74 W10       30.16S WCI  12
BIG TROUT LK   CLEAR     -8 -13  77 N5        29.99R WCI -19
PICKLE LAKE    PTCLDY    10  -2  56 W12       29.92R WCI  -4
DRYDEN         PTCLDY    10   1  67 W10       30.08R WCI  -3
KENORA         FLURRIES  12   5  73 W8        30.14R WCI   1
$$
                *** MANITOBA***

CITY           SKY/WX    TMP DP  RH WIND       PRES   REMARKS
BRANDON        PTCLDY     5   0  78 W13       30.26R WCI -12
DAUPHIN        CLEAR     10   3  72 W14       30.24R WCI  -5
ISLAND LAKE    CLEAR     -2 -13  60 NW5       30.09R WCI -12
PILOT MOUND      N/A     10   7  85 W7          N/A  WCI   0
THE PAS        CLEAR      3  -9  55 SW6       30.15S WCI  -8
THOMPSON       PTCLDY   -11 -20  64 CALM      30.08S
WINNIPEG       MOCLDY     9   3  78 W8        30.25R WCI  -4
LYNN LAKE      MOCLDY    -2  -9  71 SW5       30.01F WCI -12
CHURCHILL      CRYSTALS -15 -24  64 W14       29.99F WCI -38
GILLAM         CLEAR     -9 -20  59 W9        30.06R WCI -27
$$
                ***SASKATCHEWAN***

CITY           SKY/WX    TMP DP  RH WIND       PRES   REMARKS
ESTEVAN        CLEAR      5   1  85 W6        30.26F WCI  -6
KINDERSLEY     PTCLDY    18  10  73 SE16      30.01F WCI   3
LLOYDMINSTER   CLEAR     12   9  85 S9        29.95F WCI   0
PRINCE ALBERT  CLEAR     10   7  85 SW6       30.11F WCI   1
REGINA         CLEAR      3   1  92 S7        30.22S WCI  -9
YORKTON        CLEAR      7   1  78 SW7       30.21R WCI  -5
N. BATTLEFORD  CLEAR      7   5  92 SE10      30.06F WCI  -8
LA RONGE       PTCLDY     7  -6  56 S5        30.03F WCI  -2
SASKATOON      CLEAR     10   7  85 S10       30.13F WCI  -3
SWIFT CURRENT  CLEAR     12   5  73 SE14      30.06F WCI  -3
$$
NOTE: THESE ARE AUTOMATED STATIONS WITH LIMITED QUALITY CONTROL
      "FAIR" INDICATES FEW OR NO CLOUDS BELOW 12,000 FEET WITH NO
      SIGNIFICANT WEATHER AND/OR OBSTRUCTIONS TO VISIBILITY.
      SKY/WX - SKY CONDITION AND SIGNIFICANT WEATHER.
      TMP - AIR TEMPERATURE.    DP   - DEWPOINT TEMPERATURE.
      RH  - RELATIVE HUMIDITY.  PRES - PRESSURE.
      HX  - HEAT INDEX.         WCI  - WIND CHILL INDEX.
$


USA.gov is the U.S. government's official web portal to all federal, state and local government web resources and services.